{"data":{"norad_id":54748,"intl_designator":"2022-171C","name":"YAOGAN-36 04B","alt_names":[],"object_type":"PAYLOAD","status":"ACTIVE","operator":null,"country":"PRC","launch_date":"2022-12-14","launch_site_code":"XICLF","launch_vehicle":null,"mission":null,"orbit_class":"UNKNOWN","rcs_meters":null,"size_class":null,"mass_kg":null,"dimensions":null,"purposes":[],"wikipedia_slug":null,"has_3d_model":false,"image_url":null,"decayed_at":null,"tle_current":{"epoch":"2026-09-21T13:58:23.376864Z","epoch_age_seconds":68820,"freshness":"FRESH","line1":"1 54748U 22171C   26264.58221501  .00005795  00000+0  24342-3 0  9998","line2":"2 54748  35.0059 308.7627 0006091 327.2245  32.8092 15.22777418210096","mean_motion":15.22777418,"eccentricity":0.0006091,"inclination_deg":35.0059,"raan_deg":308.7627,"arg_perigee_deg":327.2245,"mean_anomaly_deg":32.8092,"bstar":0.00024342,"rev_number":21009,"period_min":94.564050069201,"perigee_km":493.27960544718,"apogee_km":501.65546689314,"semimajor_km":6875.6045361702,"source":"CELESTRAK","updated_at":"2026-09-22T09:00:25.189170Z"}}}